This is the latest recevied weather packets stored in our database for station/object AG1T-20. If no packets are shown the sender has not sent any weather packets the latest 10 day(s).
| Time | Temp. | Humidity | Pressure | Rain* | Wind** | Luminosity | Snow |
|---|---|---|---|---|---|---|---|
| 1777839605 | 22.78° C | 21% | 1016.5 hPa | 0 mm | - | 796 W/m² | - |
| 1777839005 | 21.11° C | 22% | 1016.5 hPa | 0 mm | - | 809 W/m² | - |
| 1777838405 | 22.22° C | 26% | 1016.5 hPa | 0 mm | - | 840 W/m² | - |
| 1777837805 | 21.11° C | 24% | 1017.4 hPa | 0 mm | - | 811 W/m² | - |
| 1777837205 | 22.22° C | 30% | 1017.4 hPa | 0 mm | - | 847 W/m² | - |
| 1777836605 | 21.11° C | 24% | 1017.4 hPa | 0 mm | - | 871 W/m² | - |
| 1777836005 | 20.56° C | 29% | 1017.4 hPa | 0 mm | - | 907 W/m² | - |
| 1777835405 | 20.56° C | 29% | 1017.4 hPa | 0 mm | - | 915 W/m² | - |
| 1777834805 | 20° C | 27% | 1017.4 hPa | 0 mm | - | 927 W/m² | - |
| 1777834206 | 18.89° C | 29% | 1018.1 hPa | 0 mm | - | 937 W/m² | - |
| 1777833605 | 19.44° C | 33% | 1018.1 hPa | 0 mm | - | 951 W/m² | - |
| 1777833005 | 18.33° C | 32% | 1018.1 hPa | 0 mm | - | 954 W/m² | - |
| 1777832405 | 18.33° C | 34% | 1018.1 hPa | 0 mm | - | 953 W/m² | - |
| 1777831205 | 17.22° C | 34% | 1018.1 hPa | 0 mm | - | 920 W/m² | - |
| 1777830605 | 16.67° C | 38% | 1018.7 hPa | 0 mm | - | 948 W/m² | - |
| 1777830005 | 16.11° C | 36% | 1018.7 hPa | 0 mm | - | 949 W/m² | - |
| 1777829405 | 15.56° C | 40% | 1018.7 hPa | 0 mm | - | 965 W/m² | - |
| 1777828805 | 15° C | 40% | 1018.7 hPa | 0 mm | - | 949 W/m² | - |
| 1777828205 | 14.44° C | 39% | 1018.7 hPa | 0 mm | - | 947 W/m² | - |
| 1777827605 | 15° C | 39% | 1018.7 hPa | 0 mm | - | 942 W/m² | - |
| 1777827005 | 13.33° C | - | - | 0 mm | - | 103 W/m² | - |
| 1777826405 | 13.33° C | 47% | 1019 hPa | 0 mm | - | 897 W/m² | - |
| 1777825805 | 12.22° C | 46% | 1019 hPa | 0 mm | - | 344 W/m² | - |
| 1777825205 | 12.78° C | 50% | 1019 hPa | 0 mm | - | 770 W/m² | - |
| 1777824605 | 12.78° C | 46% | 1019 hPa | 0 mm | - | 842 W/m² | - |
* Rain latest hour (hover to see other rain measurements)
** Current wind speed in m/s (hover to see current wind gust speed)